Home > Weather > Schleswig > Past weeks

Flag for Germany Past Weather in Schleswig, Schleswig-Holstein, Germany — Yesterday and Last 2 Weeks

Now
72 °F

Mild.


Feels Like: 77 °F
Forecast: 60 / 71 °F
Wind: 9 mph from Southwest

Location: Schleswig-Jagel

Current Time: Jul 28, 2016 at 6:24:24 PM

Latest Report: Jul 28, 2016 at 5:20 PM


Visibility: 4 mi

Pressure: 29.92 "Hg

Humidity: 44%

Dew Point: 48 °F

Location of SchleswigLocation

Past Weather in Schleswig — Graph

°F

Schleswig Temperature Yesterday

Maximum temperature yesterday: 72 °F (at 1:20 PM)
Minimum temperature yesterday: 59 °F (at 1:20 AM)
Average temperature yesterday: 65 °F

High & Low Weather Summary for the Past Weeks

 TemperatureHumidityPressure
High82 °F (Jul 20, 4:20 PM)100% (Jul 16, 12:20 PM)30.18 "Hg (Jul 16, 12:20 PM)
Low48 °F (Jul 14, 3:20 AM)42% (Jul 23, 2:20 PM)29.89 "Hg (Jul 13, 4:20 PM)
Average65 °F79%30.04 "Hg
* Reported Jul 13 4:20 PM — Jul 28 4:20 PM, Schleswig, Weather by CustomWeather, © 2016

Note: Actual official high and low records may vary slightly from our data, if they occured in-between our weather recording intervals... More about our weather records

Advertising

Schleswig Weather History for the Previous 24 Hours

Scroll right to see more
 ConditionsComfort  
Time TempWeatherWind HumidityBarometerVisibility
4:20 PM
Thu, Jul 28
72 °FPassing clouds.10 mph47%29.92 "HgN/A
3:20 PM70 °FScattered clouds.8 mph50%29.95 "HgN/A
2:20 PM70 °FScattered clouds.7 mph53%29.95 "HgN/A
1:20 PM70 °FScattered clouds.8 mph57%29.95 "HgN/A
12:20 PM66 °FPassing clouds.5 mph64%29.98 "HgN/A
11:20 AM64 °FScattered clouds.2 mph68%29.98 "HgN/A
10:20 AM64 °FScattered clouds.8 mph73%29.98 "HgN/A
9:20 AM63 °FPartly sunny.3 mph77%29.98 "HgN/A
8:20 AM63 °FScattered clouds.2 mph77%29.95 "HgN/A
7:20 AM59 °FScattered clouds.5 mph88%29.95 "HgN/A
6:20 AM57 °FPassing clouds.3 mph94%29.95 "HgN/A
5:20 AM57 °FCool.2 mph94%29.95 "Hg0 mi
4:20 AM59 °FCool.7 mph88%29.92 "Hg6 mi
3:20 AM61 °FCool.8 mph88%29.92 "Hg5 mi
2:20 AM63 °FMild.6 mph88%29.92 "Hg4 mi
1:20 AM63 °FMild.10 mph94%29.92 "Hg3 mi
12:20 AM63 °FMild.8 mph94%29.92 "Hg2 mi
11:20 PM
Wed, Jul 27
61 °FCool.6 mph94%29.92 "Hg2 mi
10:20 PM63 °FMild.5 mph88%29.92 "Hg2 mi
9:20 PM64 °FMild.5 mph88%29.92 "Hg3 mi
8:20 PM64 °FMild.9 mph88%29.92 "Hg3 mi
7:20 PM68 °FMild.5 mph78%29.89 "Hg4 mi
6:20 PM68 °FMild.5 mph78%29.89 "Hg4 mi
Weather by CustomWeather, © 2016

See weather overviewHow to use our weather pages